When you browse on this site, cookies collect data to enhance your experience and personalize the content and advertising you see.
Visit our Privacy Policy to learn more. By continuing to use the site, you agree to this use of cookies and data.
  • en Belgique
  • Liste des pays
  • À 7 jours
  • Température de l'eau
  • Carte météo
  • Widgets météo
  • user-avatar
    Se connecter

    Météo par heure à Lukotino

    Ce jour, 17 Août, Samedi

    Heure Température Précipitation Vent Pression Humidité
    00:00 +12°C° 0 mm 1 m/s 751 mmHg 89%
    01:00 +12°C° 0 mm 1 m/s 751 mmHg 90%
    02:00 +10°C° 0 mm 2 m/s 751 mmHg 88%
    03:00 +10°C° 0 mm 2 m/s 751 mmHg 88%
    04:00 +10°C° 0 mm 2 m/s 752 mmHg 88%
    05:00 +10°C° 0 mm 2 m/s 752 mmHg 87%
    06:00 +13°C° 0 mm 2 m/s 752 mmHg 81%
    07:00 +14°C° 0 mm 2 m/s 752 mmHg 76%
    08:00 +16°C° 0 mm 2 m/s 752 mmHg 70%
    09:00 +18°C° 0 mm 2 m/s 752 mmHg 65%
    10:00 +19°C° 0 mm 2 m/s 752 mmHg 60%
    11:00 +21°C° 0 mm 2 m/s 752 mmHg 55%
    12:00 +21°C° 0 mm 2 m/s 751 mmHg 54%
    13:00 +21°C° 0 mm 3 m/s 751 mmHg 53%
    14:00 +22°C° 0 mm 3 m/s 751 mmHg 52%
    15:00 +21°C° 0 mm 2 m/s 751 mmHg 56%
    16:00 +21°C° 0 mm 2 m/s 751 mmHg 61%
    17:00 +20°C° 0 mm 2 m/s 750 mmHg 65%
    18:00 +19°C° 0 mm 2 m/s 750 mmHg 70%
    19:00 +17°C° 0 mm 2 m/s 750 mmHg 75%
    20:00 +15°C° 0 mm 2 m/s 750 mmHg 80%
    21:00 +15°C° 0 mm 2 m/s 750 mmHg 81%
    22:00 +15°C° 0 mm 2 m/s 749 mmHg 82%
    23:00 +13°C° 0 mm 3 m/s 749 mmHg 82%

    Demain, 18 Août, Dimanche

    Heure Température Précipitation Vent Pression Humidité
    00:00 +13°C° 0 mm 3 m/s 749 mmHg 83%
    01:00 +13°C° 0 mm 3 m/s 748 mmHg 83%
    02:00 +13°C° 0 mm 3 m/s 748 mmHg 84%
    03:00 +13°C° 0.1 mm 3 m/s 748 mmHg 84%
    04:00 +12°C° 0.1 mm 3 m/s 747 mmHg 85%
    05:00 +12°C° 0.1 mm 3 m/s 747 mmHg 86%
    06:00 +12°C° 0.8 mm 4 m/s 747 mmHg 90%
    07:00 +12°C° 0.8 mm 4 m/s 746 mmHg 93%
    08:00 +12°C° 0.8 mm 4 m/s 746 mmHg 96%
    09:00 +13°C° 0.7 mm 4 m/s 746 mmHg 96%
    10:00 +13°C° 0.7 mm 4 m/s 745 mmHg 97%
    11:00 +13°C° 0.7 mm 4 m/s 745 mmHg 97%
    12:00 +13°C° 1.7 mm 4 m/s 745 mmHg 97%
    13:00 +13°C° 1.7 mm 4 m/s 745 mmHg 98%
    14:00 +13°C° 1.7 mm 4 m/s 745 mmHg 98%
    15:00 +13°C° 1.4 mm 4 m/s 745 mmHg 98%
    16:00 +13°C° 1.4 mm 3 m/s 745 mmHg 98%
    17:00 +13°C° 1.4 mm 3 m/s 745 mmHg 98%
    18:00 +13°C° 0.2 mm 3 m/s 745 mmHg 98%
    19:00 +13°C° 0.2 mm 3 m/s 745 mmHg 98%
    20:00 +13°C° 0.2 mm 3 m/s 745 mmHg 98%
    21:00 +13°C° 0 mm 3 m/s 745 mmHg 98%
    22:00 +13°C° 0 mm 3 m/s 746 mmHg 98%
    23:00 +13°C° 0 mm 3 m/s 746 mmHg 98%

    Après-demain, 19 Août, Lundi

    Heure Température Précipitation Vent Pression Humidité
    00:00 +13°C° 0 mm 3 m/s 746 mmHg 97%
    01:00 +13°C° 0 mm 3 m/s 747 mmHg 97%
    02:00 +12°C° 0 mm 3 m/s 747 mmHg 97%
    03:00 +12°C° 0 mm 3 m/s 747 mmHg 97%
    04:00 +12°C° 0 mm 2 m/s 747 mmHg 97%
    05:00 +12°C° 0 mm 2 m/s 748 mmHg 97%
    06:00 +13°C° 0 mm 2 m/s 748 mmHg 93%
    07:00 +15°C° 0 mm 2 m/s 749 mmHg 89%
    08:00 +17°C° 0 mm 2 m/s 749 mmHg 85%
    09:00 +19°C° 0 mm 2 m/s 749 mmHg 75%
    10:00 +20°C° 0 mm 3 m/s 749 mmHg 65%
    11:00 +22°C° 0 mm 3 m/s 750 mmHg 54%
    12:00 +24°C° 0 mm 3 m/s 750 mmHg 55%
    13:00 +25°C° 0 mm 3 m/s 750 mmHg 55%
    14:00 +26°C° 0 mm 3 m/s 750 mmHg 56%
    15:00 +25°C° 0 mm 3 m/s 750 mmHg 61%
    16:00 +25°C° 0 mm 2 m/s 750 mmHg 66%
    17:00 +24°C° 0 mm 2 m/s 750 mmHg 71%
    18:00 +23°C° 0 mm 2 m/s 751 mmHg 77%
    19:00 +20°C° 0 mm 2 m/s 751 mmHg 83%
    20:00 +19°C° 0 mm 2 m/s 751 mmHg 89%
    21:00 +18°C° 0 mm 2 m/s 751 mmHg 91%
    22:00 +18°C° 0 mm 2 m/s 751 mmHg 92%
    23:00 +18°C° 0 mm 2 m/s 751 mmHg 94%

    20 Août, Mardi

    Heure Température Précipitation Vent Pression Humidité
    00:00 +17°C° 0 mm 2 m/s 751 mmHg 94%
    01:00 +17°C° 0 mm 2 m/s 752 mmHg 95%
    02:00 +17°C° 0 mm 2 m/s 752 mmHg 96%
    03:00 +17°C° 0 mm 2 m/s 752 mmHg 97%
    04:00 +17°C° 0 mm 2 m/s 752 mmHg 98%
    05:00 +16°C° 0 mm 2 m/s 752 mmHg 98%
    06:00 +18°C° 0.1 mm 2 m/s 752 mmHg 96%
    07:00 +19°C° 0.1 mm 2 m/s 752 mmHg 94%
    08:00 +20°C° 0.1 mm 2 m/s 753 mmHg 92%
    09:00 +20°C° 0 mm 2 m/s 753 mmHg 89%
    10:00 +21°C° 0 mm 2 m/s 753 mmHg 87%
    11:00 +23°C° 0 mm 2 m/s 753 mmHg 84%
    12:00 +21°C° 0.4 mm 2 m/s 753 mmHg 88%
    13:00 +21°C° 0.4 mm 1 m/s 753 mmHg 91%
    14:00 +21°C° 0.4 mm 1 m/s 753 mmHg 94%
    15:00 +21°C° 0 mm 1 m/s 753 mmHg 91%
    16:00 +21°C° 0 mm 1 m/s 753 mmHg 88%
    17:00 +20°C° 0 mm 0 m/s 753 mmHg 85%
    18:00 +18°C° 0 mm 0 m/s 753 mmHg 89%
    19:00 +17°C° 0 mm 0 m/s 753 mmHg 92%
    20:00 +16°C° 0 mm 0 m/s 753 mmHg 96%
    21:00 +16°C° 0 mm 0 m/s 753 mmHg 96%
    22:00 +15°C° 0 mm 0 m/s 753 mmHg 96%
    23:00 +15°C° 0 mm 0 m/s 754 mmHg 96%

    21 Août, Mercredi

    Heure Température Précipitation Vent Pression Humidité
    00:00 +15°C° 0 mm 0 m/s 754 mmHg 96%
    01:00 +14°C° 0 mm 0 m/s 754 mmHg 95%
    02:00 +14°C° 0 mm 0 m/s 754 mmHg 95%
    03:00 +14°C° 0 mm 0 m/s 754 mmHg 95%
    04:00 +14°C° 0 mm 0 m/s 754 mmHg 95%
    05:00 +14°C° 0 mm 0 m/s 754 mmHg 95%
    06:00 +15°C° 0 mm 0 m/s 754 mmHg 90%
    07:00 +17°C° 0 mm 0 m/s 754 mmHg 85%
    08:00 +19°C° 0 mm 0 m/s 755 mmHg 79%
    09:00 +22°C° 0 mm 1 m/s 754 mmHg 73%
    10:00 +23°C° 0 mm 1 m/s 754 mmHg 67%
    11:00 +25°C° 0 mm 1 m/s 754 mmHg 61%
    12:00 +25°C° 0 mm 1 m/s 754 mmHg 62%
    13:00 +25°C° 0 mm 1 m/s 754 mmHg 63%
    14:00 +26°C° 0 mm 1 m/s 753 mmHg 64%
    15:00 +25°C° 0.1 mm 1 m/s 753 mmHg 71%
    16:00 +24°C° 0.1 mm 2 m/s 753 mmHg 78%
    17:00 +23°C° 0.1 mm 2 m/s 752 mmHg 85%
    18:00 +21°C° 0.1 mm 2 m/s 752 mmHg 89%
    19:00 +20°C° 0.1 mm 2 m/s 751 mmHg 93%
    20:00 +19°C° 0.1 mm 2 m/s 751 mmHg 97%
    21:00 +19°C° 0.4 mm 2 m/s 750 mmHg 97%
    22:00 +19°C° 0.4 mm 3 m/s 750 mmHg 98%
    23:00 +19°C° 0.4 mm 3 m/s 749 mmHg 98%

    22 Août, Jeudi

    Heure Température Précipitation Vent Pression Humidité
    00:00 +19°C° 0.2 mm 3 m/s 749 mmHg 97%
    01:00 +19°C° 0.2 mm 4 m/s 749 mmHg 96%
    02:00 +20°C° 0.2 mm 4 m/s 748 mmHg 95%
    03:00 +19°C° 0 mm 4 m/s 748 mmHg 96%
    04:00 +19°C° 0 mm 4 m/s 748 mmHg 96%
    05:00 +19°C° 0 mm 4 m/s 748 mmHg 96%
    06:00 +18°C° 0.1 mm 4 m/s 748 mmHg 95%
    07:00 +18°C° 0.1 mm 4 m/s 749 mmHg 93%
    08:00 +16°C° 0.1 mm 5 m/s 749 mmHg 92%
    09:00 +16°C° 0 mm 5 m/s 750 mmHg 89%
    10:00 +15°C° 0 mm 4 m/s 751 mmHg 86%
    11:00 +15°C° 0 mm 4 m/s 752 mmHg 83%
    12:00 +17°C° 0 mm 4 m/s 752 mmHg 75%
    13:00 +19°C° 0 mm 4 m/s 752 mmHg 67%
    14:00 +20°C° 0 mm 4 m/s 753 mmHg 59%
    15:00 +20°C° 0 mm 4 m/s 753 mmHg 61%
    16:00 +20°C° 0 mm 3 m/s 753 mmHg 64%
    17:00 +20°C° 0 mm 2 m/s 753 mmHg 66%
    18:00 +18°C° 0 mm 2 m/s 753 mmHg 71%
    19:00 +16°C° 0 mm 2 m/s 753 mmHg 76%
    20:00 +15°C° 0 mm 2 m/s 753 mmHg 82%
    21:00 +14°C° 0 mm 2 m/s 753 mmHg 85%
    22:00 +13°C° 0 mm 2 m/s 754 mmHg 88%
    23:00 +13°C° 0 mm 2 m/s 754 mmHg 91%
    Voir plus